Regional Weather Roundup
Issued by NWS

Home | Current Version | Previous Version | Text Only | Print | Product List | Glossary On
Versions: 1 2 3 4 5 6 7 8 9 10 11 12 13 14 15 16 17 18 19 20 21 22 23 24 25 26 27 28 29 30 31 32 33 34 35 36 37 38 39 40 41 42 43 44 45 46 47 48 49 50
000
ASUS42 KFFC 290403
RWRGA
WEATHER ROUNDUP FOR GEORGIA
NATIONAL WEATHER SERVICE PEACHTREE CITY GA
1100 PM EST SUN DEC 28 2014

NOTE: "FAIR" INDICATES FEW OR NO CLOUDS BELOW 12,000 FEET WITH NO
SIGNIFICANT WEATHER AND/OR OBSTRUCTIONS TO VISIBILITY.

* = USE WITH CAUTION. THE STATIONS MARKED WITH AN ASTERISK MAY NOT
REPORT WEATHER SUCH AS PRECIPITATION, FOG, OR THUNDER AND ARE NOT
QUALITY CONTROLLED BY NWS.

THE REMARK "TC" DENOTES TEMPERATURE READING IN DEGREES CELSIUS.

GAZ001>058-290500-
NORTH GEORGIA

CITY           SKY/WX    TMP DP  RH WIND       PRES   REMARKS
ATLANTA        CLOUDY    59  56  89 N5        30.06S
ATHENS         CLOUDY    56  55  97 CALM      30.05F FOG
CHAMBLEE       CLOUDY    57  55  93 NW6       30.06S
PEACHTREE CITY LGT RAIN  58  57  97 CALM      30.06F VSB 1/2
ROME           CLOUDY    56  53  90 N6        30.08R
WEST ATLANTA   CLOUDY    58  55  90 CALM      30.06S
GAINESVILLE    CLOUDY    56  54  93 NW3       30.07S
CARTERSVILLE   CLOUDY    57  53  86 N7        30.09R


CITY           SKY/WX    TMP DP  RH WIND       PRES   REMARKS
DALTON*        CLOUDY    52  52 100 NW6       30.09S
MARIETTA       CLOUDY    57  57 100 NW3       30.07R
KENNESAW*      CLOUDY    57  54  88 N3        30.09R
$$

GAZ059>098-102>109-290500-
CENTRAL GEORGIA

CITY           SKY/WX    TMP DP  RH WIND       PRES   REMARKS
AUGUSTA-BUSH   PTCLDY    57  57 100 CALM      30.05F
AUGUSTA-DANIEL CLOUDY    62  60  93 SE5       30.06F
COLUMBUS       LGT RAIN  61  61 100 CALM      30.04F
MACON          LGT RAIN  63  63 100 CALM      30.04S FOG
ROBINS AFB     HVY RAIN  65  65 100 VRB1      30.04S FOG


CITY           SKY/WX    TMP DP  RH WIND       PRES   REMARKS
LAGRANGE*      CLOUDY    64  63  97 CALM      30.05S
SYLVANIA*      PTCLDY    62  62 100 CALM      30.06F
MILLEDGEVILLE* CLOUDY    61  61 100 CALM      30.04S FOG
$$

GAZ099>101-110>166-290500-
SOUTH GEORGIA

CITY           SKY/WX    TMP DP  RH WIND       PRES   REMARKS
SAVANNAH       MOCLDY    64  61  90 S6        30.08S
VALDOSTA       FOG       67  65  93 S3        30.09S VSB 1
ALMA           CLEAR     62  60  93 S6        30.07F
ST SIMONS      MOCLDY    62  60  93 CALM      30.09F
FT STEWART     CLEAR     63  62  94 S2        30.07S
ALBANY         CLOUDY    68  64  87 S10       30.08R
HUNTER AFB     CLEAR     61  61 100 S2        30.07R
MOODY AFB      CLOUDY    64  63  94 S9        30.09R
BRUNSWICK      PTCLDY    61  59  94 CALM      30.10S


CITY           SKY/WX    TMP DP  RH WIND       PRES   REMARKS
BAINBRIDGE*    CLOUDY    70  68  94 S6        30.07S
MOULTRIE*      CLOUDY    66  64  94 SW6       30.09R
VIDALIA*       PTCLDY    63  63 100 S3        30.06S
WAYCROSS*      CLEAR     63  62  97 S5        30.08F
DOUGLAS*       CLEAR     64  63  94 S5        30.08F
$$



USA.gov is the U.S. government's official web portal to all federal, state and local government web resources and services.